Regional Weather Roundup
Issued by NWS

Home | Current Version | Previous Version | Text Only | Print | Product List | Glossary On
Versions: 1 2 3 4 5 6 7 8 9 10 11 12 13 14 15 16 17 18 19 20 21 22 23 24 25 26 27 28 29 30 31 32 33 34 35 36 37 38 39 40 41 42 43 44 45 46 47 48 49 50
000
ASUS44 KLIX 291717
RWRLA
LOUISIANA WEATHER ROUNDUP
NATIONAL WEATHER SERVICE NEW ORLEANS LA
1200 PM CDT WED JUL 29 2015

NOTE: "FAIR" INDICATES FEW OR NO CLOUDS BELOW 12,000 FEET WITH NO
      SIGNIFICANT WEATHER AND/OR OBSTRUCTIONS TO VISIBILITY.
      SKY/WX - SKY CONDITION AND SIGNIFICANT WEATHER.
      TMP - AIR TEMPERATURE.    DP   - DEWPOINT TEMPERATURE.
      RH  - RELATIVE HUMIDITY.  PRES - PRESSURE.
      HX  - HEAT INDEX.         WCI  - WIND CHILL INDEX.

*  THESE STATIONS ARE NOT NWS OR FAA STATIONS AND ARE NOT UNDER
   NWS QUALITY CONTROL.

LAZ040-048-061>063-065-066-069-291800-
SOUTHEAST LOUISIANA

CITY           SKY/WX    TMP DP  RH WIND       PRES   REMARKS
N.O. AUDUBON     N/A     95 N/A N/A MISG        N/A
N.O. INTL ARPT PTSUNNY   92  75  57 N9G17     30.03F HX 103
N.O. LAKEFRONT SUNNY     92  76  59 N8        30.03F HX 104
N.O. DOWNTOWN* FAIR      91  75  59 N6        30.04S HX 102
RESERVE*       FAIR      95  76  55 N8        30.03F HX 108
SLIDELL        SUNNY     95  76  53 N15       30.02F HX 108
BATON ROUGE    MOSUNNY   95  74  50 NE8       30.04F HX 105
BOOTHVILLE     PTSUNNY   89  74  60 VRB6      30.04S HX  98
BELLE CHASSE   PTSUNNY   92  75  57 N9        30.02F HX 103
BOGALUSA*        N/A     93  74  52 N5        30.05S HX 103
GALLIANO*      NOT AVBL
NEW ROADS*     FAIR     N/A N/A N/A NW5       30.05S
GONZALES*      FAIR      92  75  57 N6        30.03S HX 104
HAMMOND*       SUNNY     97  70  41 N8        30.05S HX 103
HOUMA*         MOSUNNY   91  77  62 N6        30.03F HX 105
PORT FOURCHON* SUNNY     90  75  62 N9G15     30.04S HX 100

$$

LAZ041-044-053-054-291800-
SOUTHWEST LOUISIANA

CITY           SKY/WX    TMP DP  RH WIND       PRES   REMARKS
LAKE CHARLES   SUNNY     94  70  45 VRB6      30.05S HX 100
LAFAYETTE      SUNNY     94  74  52 VRB3      30.04F HX 104
PATTERSON      MOSUNNY   90  77  66 N5        30.06R HX 102
SALT POINT       N/A     90  75  61 VRB5      30.02S HX 100
NEW IBERIA     MOSUNNY   93  76  57 N6        30.05S HX 105
CHENAULT AIRPK NOT AVBL

$$

LAZ027-028-291800-
CENTRAL LOUISIANA

CITY           SKY/WX    TMP DP  RH WIND       PRES   REMARKS
FORT POLK      MOSUNNY   92  71  51 SW3       30.05S HX  98
ALEXANDRIA INT SUNNY     94  72  48 VRB3      30.04S HX 102
ALEXANDRIA     SUNNY     98  71  41 N6        30.05S HX 106

$$

LAZ001-002-291800-
NORTHWEST LOUISIANA

CITY           SKY/WX    TMP DP  RH WIND       PRES   REMARKS
SHREVEPORT     SUNNY     96  68  39 N8        30.05F HX 101
BARKSDALE AFB  SUNNY     95  69  42 VRB3      30.06S HX 101
DTN SHREVEPORT SUNNY     94  69  44 VRB5      30.06S HX  99

$$

LAZ014-016-291800-
NORTHEAST LOUISIANA

CITY           SKY/WX    TMP DP  RH WIND       PRES   REMARKS
MONROE         SUNNY     96  75  50 VRB5      30.05F HX 108
TALLULAH       SUNNY     95  74  50 NE7       30.05S HX 105

$$



USA.gov is the U.S. government's official web portal to all federal, state and local government web resources and services.